[[{"header":{"parameterUnit":"m.s-1","parameterCategory":2,"la1":30.2991,"la2":30.254,"lo1":-89.0895,"lo2":-89.0444,"dy":0.0017,"dx":0.0017,"nx":28,"ny":28,"refTime":"2024-08-13T09:00:00:Z","depth":"0","parameterNumber":2,"parameterNumberName":"U-component_of_CURRENTS"},"data":[0,0,0,0,0,0,0,0,0,0,0,0,0,0,0,0,0,0,0,0,0,0,0,0,0,0,0,0,0,0,0,0,0,0,0,0,0,0,0,0,0,0,0,0,0,0,0,0,0,0,0,0,0,0,0,0,0,0,0.3943,0.3943,0,0.3896,0.3895,0.3894,0.3903,0.3904,0.3905,0.3906,0.3893,0.3892,0.389,0,0,0,0,0,0,0,0,0,0,0,0,0,0.4011,0.4009,0.3943,0.3943,0.3943,0.3896,0.3895,0.3894,0.3902,0.3904,0.3906,0.3907,0.3894,0.3892,0.389,0,0,0,0,0,0,0,0,0,0,0,0,0,0.3969,0.4009,0.3943,0.3945,0.3945,0.3896,0.3895,0.3893,0.3902,0.3904,0.3906,0.3908,0.3894,0.3892,0.389,0.3836,0,0,0.3883,0.3882,0,0,0,0,0,0,0,0,0.3972,0.3966,0.3945,0.3945,0.3945,0.3912,0.3914,0.3878,0.3902,0.3913,0.3906,0.3909,0.3904,0.3901,0.388,0.3835,0.3835,0.3882,0.3881,0.388,0.3879,0,0,0,0,0,0,0,0.3975,0.3968,0.3919,0.3945,0.3945,0.3939,0.3935,0.3907,0.3895,0.3912,0.3914,0.3916,0.3904,0.3882,0.388,0.3835,0.3882,0.388,0.3879,0.3878,0.3854,0.3855,0,0,0,0,0,0,0.399,0.3971,0.3921,0.3918,0.3969,0.3936,0.3932,0.3916,0.3895,0.3894,0.3915,0.3917,0.3886,0.3883,0.388,0.3879,0.388,0.3878,0.3876,0.3854,0.3855,0.3855,0,0,0,0,0,0,0.3991,0.3985,0.3923,0.3949,0.3941,0.3934,0.3916,0.3914,0.3909,0.3897,0.3897,0.3914,0.3887,0.3883,0.3868,0.3876,0.3877,0.3875,0.3853,0.3854,0.3855,0.3836,0,0,0,0,0,0,0.3993,0.3985,0.3973,0.3949,0.3941,0.3902,0.3915,0.3912,0.3909,0.3911,0.3896,0.3896,0.3888,0.3872,0.3866,0.3873,0.3873,0.3852,0.3853,0.3855,0.3835,0.3836,0.3837,0,0,0,0,0,0.3995,0.3968,0.3972,0.3967,0.3926,0.3902,0.3895,0.3894,0.3907,0.3897,0.3893,0.3897,0.3879,0.3869,0.3862,0.3869,0.3851,0.3853,0.3854,0.3835,0.3836,0.3837,0,0,0,0,0,0,0.3985,0.3966,0.397,0.3938,0.3929,0.3906,0.3888,0.3896,0.388,0.3884,0.3882,0.388,0.3889,0.3875,0.3865,0.3873,0.3875,0.3875,0.3862,0.3863,0.3864,0.3876,0.3871,0,0,0,0,0,0.3979,0.3952,0.3946,0.3916,0.3913,0.3903,0.3893,0.3895,0.3882,0.3878,0.3867,0.3869,0.3884,0.3871,0.3877,0.3846,0.3903,0.3858,0.3859,0.3859,0.3868,0.3973,0.3984,0.3861,0.3861,0.3861,0,0,0.3964,0.3951,0.3935,0.3913,0.3899,0.3881,0.39,0.3881,0.3872,0.3877,0.385,0.3872,0.3884,0.3877,0.3878,0.3863,0.3923,0.3861,0.3861,0.3871,0.3976,0.3988,0.3999,0.3862,0.3862,0.3862,0,0,0.392,0.3912,0.388,0.3874,0.3864,0.386,0.3862,0.3845,0.3847,0.3824,0.3855,0.3878,0.3852,0.3876,0.3885,0.3888,0.3941,0.3896,0.388,0.3981,0.3993,0.4003,0.4087,0.4105,0.3874,0.3874,0.3874,0,0.3909,0.3866,0.3868,0.3843,0.3837,0.3855,0.3832,0.3827,0.3809,0.3816,0.3818,0.3853,0.3859,0.389,0.3897,0.389,0.3956,0.387,0.3983,0.3995,0.4006,0.4089,0.411,0.3873,0.3874,0.3874,0.3874,0,0.3849,0.3821,0.38,0.3777,0.3773,0.3751,0.3763,0.3761,0.3771,0.3778,0.3815,0.3833,0.3859,0.3873,0.3877,0.3957,0.3982,0.399,0.398,0.4018,0.4103,0.4124,0.3872,0.3873,0.3873,0.3873,0,0,0.3812,0.3767,0.3762,0.3744,0.374,0.3727,0.3725,0.3732,0.3745,0.3753,0.3781,0.3817,0.3851,0.3868,0.3897,0.3969,0.4098,0.4004,0.401,0.4085,0.4327,0.4115,0.4119,0.4135,0.4139,0.4142,0.4353,0,0.3767,0.3706,0.3704,0.3659,0.3633,0.3661,0.3659,0.3676,0.3702,0.373,0.3792,0.3833,0.3842,0.3874,0.3947,0.4078,0.4156,0.404,0.4282,0.4289,0.4094,0.4136,0.3863,0.4008,0.4374,0.4378,0.4381,0,0.3717,0.3682,0.3626,0.3604,0.3599,0.3586,0.361,0.3614,0.3676,0.3704,0.3765,0.3821,0.3928,0.3938,0.4166,0.4098,0.421,0.4304,0.4315,0.4139,0.4116,0.4032,0.4034,0.392,0.4415,0.4412,0.4409,0,0.3685,0.3634,0.3587,0.3577,0.3556,0.3553,0.3561,0.3605,0.3622,0.371,0.3747,0.3868,0.394,0.4113,0.4253,0.425,0.4504,0.4525,0.4441,0.4429,0.4251,0.4213,0.4164,0.4699,0.4699,0.4698,0.4698,0,0.3638,0.36,0.3566,0.3538,0.3505,0.352,0.3516,0.3547,0.361,0.3637,0.3737,0.3789,0.3996,0.4133,0.4285,0.4396,0.4531,0.445,0.4468,0.423,0.419,0.4124,0.411,0.4706,0.4705,0.4703,0.4702,0,0.3598,0.3573,0.3515,0.3486,0.3479,0.3461,0.3474,0.3485,0.3556,0.3606,0.3643,0.3775,0.3928,0.4094,0.4364,0.4398,0.4416,0.4564,0.4242,0.4213,0.397,0.3964,0.3865,0.378,0.4529,0.4525,0.4521,0,0.3568,0.3529,0.3474,0.3449,0.343,0.3412,0.3406,0.3452,0.347,0.3583,0.3607,0.3746,0.3795,0.4048,0.4132,0.4309,0.4268,0.4158,0.4074,0.3904,0.3918,0.3826,0.3758,0.3868,0.386,0.3853,0.3847,0,0.3518,0.3497,0.346,0.3397,0.3369,0.3339,0.3337,0.3342,0.3408,0.3446,0.35,0.3552,0.3677,0.3662,0.3806,0.3903,0.3886,0.4014,0.3954,0.3467,0.3258,0.3199,0.379,0.3785,0.3791,0.3796,0.3799,0.3802,0.3496,0.3454,0.3405,0.334,0.3308,0.3268,0.3214,0.3229,0.323,0.3216,0.333,0.328,0.3281,0.3399,0.3466,0.3329,0.3467,0.3263,0.3307,0.3256,0.3025,0.3432,0.335,0.3354,0.3357,0.336,0.3362,0,0.3448,0.3405,0.3352,0.326,0.3189,0.3193,0.3156,0.3071,0.3016,0.3004,0.2979,0.2844,0.2775,0.2801,0.2729,0.2657,0.262,0.2608,0.2461,0.2466,0.293,0.2742,0.2378,0.2378,0.2378,0.2378,0.2378,0.2378,0.3426,0.3347,0.3297,0.3154,0.3091,0.2934,0.2884,0.2774,0.2709,0.2511,0.2356,0.2327,0.2369,0.2306,0.2186,0.216,0.2098,0.1922,0.2078,0.2421,0.2487,0.255,0.2366,0.193,0.193,0.145,0.1447,0.1444]},{"header":{"parameterUnit":"m.s-1","parameterCategory":2,"la1":30.2991,"la2":30.254,"lo1":-89.0895,"lo2":-89.0444,"dy":0.0017,"dx":0.0017,"nx":28,"ny":28,"refTime":"2024-08-13T09:00:00:Z","depth":"0","parameterNumber":3,"parameterNumberName":"V-component_of_CURRENTS"},"data":[0,0,0,0,0,0,0,0,0,0,0,0,0,0,0,0,0,0,0,0,0,0,0,0,0,0,0,0,0,0,0,0,0,0,0,0,0,0,0,0,0,0,0,0,0,0,0,0,0,0,0,0,0,0,0,0,0,0,0.0724,0.0724,0,0.0786,0.0787,0.0787,0.0788,0.0787,0.0786,0.0785,0.0748,0.0748,0.0748,0,0,0,0,0,0,0,0,0,0,0,0,0,0.0622,0.0624,0.0723,0.0724,0.0725,0.0786,0.0787,0.0788,0.0788,0.0787,0.0786,0.0785,0.0748,0.0748,0.0748,0,0,0,0,0,0,0,0,0,0,0,0,0,0.0673,0.0624,0.0723,0.0733,0.0734,0.0786,0.0787,0.0788,0.0788,0.0787,0.0786,0.0785,0.0748,0.0748,0.0747,0.0769,0,0,0.0746,0.0746,0,0,0,0,0,0,0,0,0.067,0.0677,0.0731,0.0732,0.0734,0.0778,0.0738,0.0777,0.0788,0.0767,0.0785,0.0784,0.075,0.0749,0.0765,0.0767,0.0765,0.0746,0.0746,0.0746,0.0746,0,0,0,0,0,0,0,0.0667,0.0674,0.0748,0.0731,0.0734,0.074,0.0746,0.0745,0.0762,0.0769,0.0769,0.0777,0.075,0.0765,0.0764,0.0765,0.0746,0.0746,0.0746,0.0745,0.0772,0.0773,0,0,0,0,0,0,0.066,0.0671,0.0746,0.075,0.0699,0.0743,0.0749,0.0765,0.0765,0.0764,0.0778,0.0777,0.0767,0.0764,0.0762,0.0799,0.0746,0.0745,0.0745,0.0771,0.0772,0.0773,0,0,0,0,0,0,0.0658,0.0667,0.0743,0.0711,0.0722,0.0746,0.0763,0.0767,0.0781,0.0773,0.077,0.0788,0.0766,0.0763,0.0778,0.0797,0.0745,0.0745,0.077,0.0772,0.0773,0.0865,0,0,0,0,0,0,0.0655,0.0666,0.0678,0.0711,0.0723,0.0783,0.0765,0.0769,0.0787,0.0786,0.078,0.0776,0.0764,0.0779,0.0777,0.0795,0.0745,0.0769,0.0771,0.0773,0.0861,0.0869,0.0877,0,0,0,0,0,0.0651,0.0676,0.0678,0.0687,0.0738,0.0784,0.0792,0.0803,0.0789,0.0808,0.0806,0.0776,0.0788,0.078,0.0778,0.0796,0.0768,0.077,0.0772,0.0857,0.0868,0.0877,0,0,0,0,0,0,0.0637,0.0679,0.0682,0.0717,0.075,0.0784,0.0804,0.0807,0.0824,0.0818,0.0799,0.0797,0.0816,0.0793,0.0785,0.0807,0.0768,0.077,0.0833,0.0843,0.0851,0.0843,0.0744,0,0,0,0,0,0.064,0.067,0.0707,0.0736,0.0752,0.0777,0.0795,0.0806,0.0824,0.0831,0.0828,0.082,0.0826,0.0824,0.0825,0.0842,0.0806,0.0847,0.0855,0.0862,0.0854,0.0822,0.0826,0.078,0.078,0.078,0,0,0.0642,0.067,0.0686,0.0735,0.0759,0.0801,0.0785,0.0822,0.0852,0.0822,0.0859,0.0853,0.0837,0.0864,0.0867,0.0845,0.0861,0.0865,0.0871,0.0858,0.0825,0.0829,0.0833,0.0782,0.0782,0.0781,0,0,0.0671,0.0687,0.0724,0.0758,0.0801,0.082,0.083,0.0869,0.0879,0.0917,0.0902,0.0909,0.0918,0.0917,0.0914,0.0962,0.0908,0.0956,0.0989,0.096,0.0963,0.0965,0.0947,0.0947,0.0956,0.0957,0.0957,0,0.0668,0.0725,0.0742,0.0791,0.0821,0.0829,0.0877,0.0898,0.0936,0.0948,0.0935,0.0954,0.0943,0.0966,0.0985,0.098,0.0953,0.0959,0.097,0.0972,0.0972,0.0952,0.0951,0.0961,0.0961,0.096,0.096,0,0.0731,0.0776,0.0802,0.0864,0.0898,0.0941,0.0972,0.0998,0.1003,0.1019,0.1044,0.1036,0.1039,0.1042,0.103,0.1037,0.1015,0.0989,0.0947,0.0983,0.096,0.0957,0.0968,0.0966,0.0965,0.0964,0,0,0.0725,0.0825,0.0834,0.0875,0.094,0.0974,0.1024,0.1071,0.1095,0.1112,0.1143,0.1148,0.1128,0.1121,0.1103,0.1079,0.1076,0.1038,0.1035,0.1023,0.1015,0.1007,0.1002,0.1049,0.1049,0.1048,0.1005,0,0.0768,0.0866,0.0906,0.099,0.1041,0.1068,0.1113,0.115,0.1169,0.12,0.1182,0.1203,0.1162,0.1166,0.1137,0.1102,0.1067,0.109,0.0979,0.0976,0.0965,0.0998,0.0935,0.089,0.1002,0.1001,0.1001,0,0.082,0.0878,0.097,0.1056,0.1078,0.1122,0.1183,0.1228,0.1265,0.1277,0.1282,0.1271,0.1265,0.121,0.1142,0.1158,0.1083,0.104,0.1037,0.0987,0.0961,0.0867,0.088,0.0809,0.0995,0.0996,0.0996,0,0.0817,0.0922,0.0994,0.1027,0.1121,0.1154,0.1195,0.1246,0.1283,0.1323,0.135,0.133,0.1331,0.1243,0.1165,0.1148,0.1079,0.1043,0.0958,0.0957,0.0859,0.085,0.0786,0.0958,0.0958,0.0958,0.0958,0,0.0859,0.0915,0.0994,0.1036,0.11,0.1161,0.1223,0.1264,0.1321,0.1374,0.1378,0.1412,0.1334,0.1295,0.1192,0.1085,0.1094,0.0966,0.0944,0.0893,0.0888,0.0785,0.0756,0.0956,0.0956,0.0957,0.0957,0,0.0865,0.0923,0.1,0.1085,0.1109,0.1152,0.1239,0.1282,0.134,0.1411,0.143,0.1472,0.1441,0.1354,0.1238,0.1132,0.0977,0.0968,0.0928,0.0902,0.0757,0.0735,0.065,0.0647,0.0869,0.0869,0.0868,0,0.0884,0.0927,0.1013,0.1047,0.1088,0.1154,0.12,0.1277,0.1329,0.1449,0.1484,0.1505,0.1524,0.1383,0.1205,0.1036,0.0962,0.0856,0.0802,0.0746,0.0705,0.0704,0.0709,0.0713,0.0711,0.071,0.0709,0,0.0903,0.0928,0.0982,0.1047,0.1098,0.1167,0.1241,0.1289,0.1393,0.1472,0.1575,0.1612,0.1503,0.1342,0.1134,0.0998,0.0815,0.0823,0.0758,0.0575,0.0573,0.0561,0.0762,0.0697,0.0698,0.0699,0.07,0.07,0.0891,0.0923,0.0981,0.1041,0.1106,0.1184,0.124,0.1333,0.1439,0.1568,0.1609,0.1671,0.1447,0.1173,0.1009,0.0677,0.0733,0.0548,0.0528,0.0534,0.0527,0.0721,0.0641,0.0641,0.0642,0.0643,0.0643,0,0.0863,0.0909,0.097,0.105,0.1117,0.116,0.127,0.1333,0.1462,0.158,0.1667,0.1564,0.129,0.1021,0.0584,0.0397,0.0357,0.0311,0.0269,0.0291,0.0432,0.0421,0.0297,0.0297,0.0297,0.0298,0.0298,0.0298,0.0846,0.0888,0.0928,0.1028,0.1098,0.118,0.1244,0.1354,0.1452,0.1562,0.1586,0.16,0.1406,0.0688,0.0253,0.0159,0.0107,0.0052,0.0094,0.0145,0.0165,0.0184,0.0166,-0.0009,-0.0009,-0.0054,-0.0055,-0.0056]}],[{"header":{"parameterUnit":"m.s-1","parameterCategory":2,"la1":30.2991,"la2":30.254,"lo1":-89.0895,"lo2":-89.0444,"dy":0.0017,"dx":0.0017,"nx":28,"ny":28,"refTime":"2024-08-13T09:00:00:Z","depth":"2","parameterNumber":2,"parameterNumberName":"U-component_of_CURRENTS"},"data":[0,0,0,0,0,0,0,0,0,0,0,0,0,0,0,0,0,0,0,0,0,0,0,0,0,0,0,0,0,0,0,0,0,0,0,0,0,0,0,0,0,0,0,0,0,0,0,0,0,0,0,0,0,0,0,0,0,0,0.2946,0.2946,0,0.296,0.296,0.2959,0.2957,0.2958,0.2958,0.2958,0.2999,0.2999,0.3,0,0,0,0,0,0,0,0,0,0,0,0,0,0.2918,0.2918,0.2946,0.2946,0.2947,0.296,0.296,0.2959,0.2957,0.2958,0.2958,0.2958,0.2998,0.2999,0.3,0,0,0,0,0,0,0,0,0,0,0,0,0,0.2926,0.2918,0.2946,0.2951,0.2952,0.296,0.296,0.2959,0.2957,0.2958,0.2958,0.2958,0.2998,0.2999,0.3,0.3001,0,0,0.3004,0.3005,0,0,0,0,0,0,0,0,0.2925,0.2926,0.295,0.2951,0.2952,0.2962,0.2965,0.2977,0.2957,0.295,0.2958,0.2958,0.2992,0.2994,0.2988,0.3003,0.3005,0.3004,0.3005,0.3006,0.3006,0,0,0,0,0,0,0,0.2925,0.2926,0.2946,0.2951,0.2952,0.2954,0.2955,0.2967,0.2965,0.2951,0.2952,0.2961,0.2992,0.2986,0.2989,0.3006,0.3004,0.3006,0.3006,0.3007,0.3104,0.3106,0,0,0,0,0,0,0.2933,0.2925,0.2946,0.2947,0.2945,0.2955,0.2955,0.2954,0.2965,0.2968,0.2961,0.2961,0.2984,0.2987,0.299,0.3016,0.3006,0.3007,0.3008,0.3103,0.3105,0.3107,0,0,0,0,0,0,0.2932,0.2934,0.2945,0.2941,0.2943,0.2955,0.2954,0.2954,0.2955,0.2973,0.2976,0.2963,0.2984,0.2989,0.301,0.3017,0.3008,0.3009,0.3101,0.3103,0.3106,0.3052,0,0,0,0,0,0,0.2931,0.2933,0.2938,0.2941,0.2944,0.2954,0.2954,0.2955,0.2963,0.2963,0.2976,0.2979,0.2985,0.3008,0.3011,0.3018,0.301,0.3098,0.3102,0.3105,0.3052,0.3053,0.3054,0,0,0,0,0,0.2929,0.2931,0.2937,0.2941,0.2948,0.2955,0.2955,0.2962,0.2963,0.2963,0.2975,0.2979,0.3033,0.3009,0.3013,0.3021,0.3097,0.3101,0.3105,0.3051,0.3052,0.3054,0,0,0,0,0,0,0.2924,0.2931,0.2939,0.2943,0.2953,0.2956,0.296,0.2964,0.2971,0.2973,0.2985,0.299,0.3028,0.3036,0.301,0.3068,0.3073,0.3078,0.3031,0.3032,0.3033,0.3069,0.3011,0,0,0,0,0,0.2926,0.2925,0.2938,0.2943,0.2947,0.2954,0.2959,0.2962,0.2971,0.2973,0.2982,0.3008,0.3047,0.3046,0.3085,0.3088,0.3139,0.3107,0.3108,0.3108,0.3146,0.3253,0.3267,0.312,0.312,0.312,0,0,0.2927,0.2932,0.2933,0.2942,0.2947,0.2945,0.2956,0.2961,0.2963,0.2978,0.2981,0.302,0.3059,0.3082,0.3097,0.308,0.3164,0.3114,0.3113,0.3152,0.3259,0.3273,0.3286,0.3123,0.3123,0.3122,0,0,0.2916,0.293,0.292,0.2927,0.2939,0.2944,0.2948,0.2953,0.296,0.2966,0.3002,0.3051,0.3061,0.3107,0.3128,0.3163,0.3187,0.3165,0.3165,0.3266,0.3279,0.3292,0.3306,0.3321,0.3138,0.3138,0.3138,0,0.2919,0.2904,0.2921,0.2913,0.2918,0.2942,0.2933,0.2945,0.2957,0.2976,0.2966,0.306,0.3086,0.3152,0.3165,0.3166,0.3199,0.3141,0.3266,0.328,0.3293,0.3307,0.3323,0.3136,0.3136,0.3136,0.3136,0,0.2892,0.2888,0.2884,0.288,0.289,0.2889,0.2911,0.2926,0.2936,0.2955,0.3026,0.3072,0.3131,0.3145,0.3156,0.3263,0.3243,0.327,0.3253,0.3305,0.3315,0.3333,0.3133,0.3133,0.3134,0.3134,0,0,0.2882,0.2865,0.2865,0.2856,0.2872,0.2874,0.2894,0.2923,0.295,0.2979,0.3024,0.3105,0.3146,0.3182,0.3216,0.3296,0.3388,0.331,0.3317,0.3308,0.3553,0.3171,0.3154,0.3429,0.3434,0.3437,0.3495,0,0.2855,0.2821,0.2829,0.2813,0.28,0.2838,0.2856,0.2894,0.2932,0.2982,0.3066,0.313,0.3151,0.3185,0.3271,0.3388,0.3446,0.3367,0.3524,0.3528,0.3169,0.3167,0.3031,0.3041,0.3513,0.3516,0.3518,0,0.2827,0.2805,0.2773,0.2777,0.2778,0.2779,0.283,0.2848,0.2939,0.2972,0.3058,0.3132,0.3257,0.3273,0.3476,0.3419,0.3492,0.3566,0.357,0.326,0.3181,0.3085,0.3056,0.3549,0.3546,0.3544,0.3542,0,0.2799,0.2776,0.2746,0.2744,0.275,0.2757,0.2772,0.2846,0.2876,0.2982,0.3025,0.3173,0.3243,0.3401,0.3512,0.3521,0.3712,0.3739,0.346,0.3433,0.3373,0.3327,0.3902,0.3902,0.3902,0.3901,0.3901,0,0.277,0.275,0.2726,0.2709,0.2693,0.2719,0.2735,0.2778,0.2856,0.2903,0.3018,0.308,0.3293,0.3404,0.3524,0.3488,0.3713,0.3458,0.3429,0.3332,0.3285,0.3795,0.3782,0.3903,0.3903,0.3903,0.3902,0,0.2747,0.2729,0.2692,0.2678,0.2673,0.2663,0.2685,0.2711,0.2787,0.2857,0.2897,0.3037,0.3126,0.327,0.3491,0.3429,0.35,0.3443,0.3238,0.3176,0.3155,0.314,0.314,0.3127,0.3116,0.3107,0.3099,0,0.2727,0.27,0.2659,0.2634,0.2621,0.2608,0.2609,0.2665,0.2694,0.2819,0.285,0.2941,0.2938,0.2999,0.3008,0.3036,0.3234,0.2834,0.2802,0.3108,0.3083,0.3084,0.3083,0.2728,0.2718,0.271,0.2703,0,0.2687,0.2673,0.2643,0.2578,0.2554,0.2541,0.2543,0.2555,0.2638,0.2687,0.2723,0.2724,0.2688,0.2577,0.2498,0.2525,0.2798,0.2642,0.3137,0.2846,0.2698,0.2678,0.2698,0.263,0.2637,0.2642,0.2646,0.2649,0.2659,0.2619,0.2566,0.2503,0.2489,0.2466,0.2403,0.2423,0.2433,0.2431,0.2517,0.2415,0.2361,0.2102,0.2059,0.204,0.2208,0.2182,0.2222,0.2267,0.2113,0.1944,0.1705,0.1707,0.1709,0.171,0.1711,0,0.2567,0.253,0.2486,0.2402,0.236,0.2407,0.2343,0.2251,0.2183,0.2215,0.2149,0.1901,0.176,0.1764,0.1619,0.151,0.1673,0.1455,0.1741,0.181,0.1872,0.1713,0.1192,0.1191,0.1189,0.1187,0,0,0.2511,0.2422,0.2383,0.2272,0.2266,0.2153,0.2098,0.1964,0.1885,0.1749,0.1674,0.1678,0.1698,0.1439,0.137,0.1282,0.1559,0.1232,0.1654,0.2064,0.2125,0.2285,0.2108,0,0,0,0,0]},{"header":{"parameterUnit":"m.s-1","parameterCategory":2,"la1":30.2991,"la2":30.254,"lo1":-89.0895,"lo2":-89.0444,"dy":0.0017,"dx":0.0017,"nx":28,"ny":28,"refTime":"2024-08-13T09:00:00:Z","depth":"2","parameterNumber":3,"parameterNumberName":"V-component_of_CURRENTS"},"data":[0,0,0,0,0,0,0,0,0,0,0,0,0,0,0,0,0,0,0,0,0,0,0,0,0,0,0,0,0,0,0,0,0,0,0,0,0,0,0,0,0,0,0,0,0,0,0,0,0,0,0,0,0,0,0,0,0,0,0.0256,0.0257,0,0.0291,0.0292,0.0292,0.0269,0.0268,0.0267,0.0266,0.0222,0.0222,0.0222,0,0,0,0,0,0,0,0,0,0,0,0,0,0.0188,0.0189,0.0256,0.0257,0.0257,0.0291,0.0292,0.0292,0.0269,0.0268,0.0267,0.0265,0.0222,0.0222,0.0222,0,0,0,0,0,0,0,0,0,0,0,0,0,0.0221,0.019,0.0256,0.0249,0.0249,0.0291,0.0292,0.0293,0.027,0.0268,0.0266,0.0265,0.0222,0.0222,0.0222,0.0255,0,0,0.0222,0.0222,0,0,0,0,0,0,0,0,0.0219,0.0223,0.025,0.025,0.0249,0.0273,0.0252,0.0276,0.027,0.0263,0.0266,0.0264,0.0233,0.0232,0.0244,0.0253,0.0252,0.0222,0.0222,0.0221,0.0221,0,0,0,0,0,0,0,0.0217,0.0222,0.0271,0.025,0.025,0.025,0.0253,0.0257,0.0256,0.0263,0.0261,0.0264,0.0232,0.0245,0.0243,0.0251,0.0222,0.0221,0.0221,0.0221,0.0286,0.0288,0,0,0,0,0,0,0.0212,0.022,0.027,0.0272,0.0229,0.0253,0.0256,0.0268,0.0258,0.0255,0.0266,0.0263,0.0246,0.0243,0.0241,0.0288,0.0221,0.0221,0.0221,0.0284,0.0286,0.0288,0,0,0,0,0,0,0.0211,0.0217,0.0268,0.0245,0.0252,0.0256,0.027,0.027,0.0273,0.0261,0.0256,0.0268,0.0244,0.0241,0.026,0.0285,0.0221,0.0221,0.0282,0.0285,0.0287,0.0375,0,0,0,0,0,0,0.0209,0.0216,0.0223,0.0245,0.0253,0.03,0.0271,0.0272,0.0278,0.0275,0.0261,0.0256,0.0243,0.0261,0.026,0.0284,0.0221,0.028,0.0283,0.0287,0.037,0.0381,0.039,0,0,0,0,0,0.0206,0.0226,0.0223,0.0229,0.0262,0.0301,0.0306,0.0303,0.028,0.0296,0.0293,0.0256,0.0281,0.0263,0.0262,0.0285,0.0278,0.0282,0.0286,0.0366,0.0379,0.039,0,0,0,0,0,0,0.0197,0.0226,0.0223,0.0249,0.0274,0.0297,0.0309,0.0305,0.0317,0.0308,0.0286,0.0283,0.031,0.0289,0.0269,0.0315,0.0271,0.0275,0.0332,0.0344,0.0354,0.036,0.0221,0,0,0,0,0,0.02,0.0223,0.0249,0.027,0.0282,0.0294,0.0306,0.031,0.0323,0.0325,0.032,0.0316,0.033,0.0328,0.0337,0.0362,0.0328,0.0375,0.0385,0.0393,0.0399,0.0384,0.0393,0.0302,0.0302,0.0302,0,0,0.0201,0.022,0.0231,0.027,0.0285,0.0326,0.0298,0.0325,0.0358,0.0319,0.0357,0.0354,0.0347,0.0383,0.0391,0.0364,0.04,0.0398,0.0406,0.0406,0.0389,0.0398,0.0406,0.0304,0.0304,0.0304,0,0,0.0225,0.0233,0.0264,0.0294,0.0325,0.0343,0.035,0.038,0.0388,0.0429,0.0413,0.0432,0.0442,0.0455,0.0458,0.0526,0.0458,0.0517,0.0565,0.0552,0.0559,0.0564,0.0524,0.0525,0.0515,0.0515,0.0515,0,0.0223,0.0269,0.0279,0.0322,0.0352,0.0353,0.04,0.0421,0.0455,0.0473,0.0448,0.0493,0.0482,0.0534,0.0556,0.0549,0.0513,0.0521,0.0564,0.0569,0.0573,0.053,0.053,0.052,0.052,0.0519,0.0519,0,0.0278,0.0316,0.0338,0.0395,0.043,0.0471,0.0505,0.0535,0.0538,0.0557,0.0603,0.0603,0.0624,0.0627,0.0609,0.0646,0.06,0.0582,0.0531,0.0587,0.0538,0.0537,0.0527,0.0525,0.0524,0.0523,0,0,0.0273,0.036,0.0367,0.0409,0.0473,0.051,0.057,0.0629,0.0666,0.0687,0.0738,0.0761,0.0745,0.0748,0.0731,0.0719,0.0715,0.066,0.0657,0.0614,0.0656,0.0593,0.0585,0.0694,0.0694,0.0695,0.0606,0,0.0313,0.0403,0.044,0.053,0.0581,0.0615,0.0675,0.0725,0.0752,0.0803,0.0804,0.0841,0.0795,0.0804,0.079,0.0749,0.0717,0.0739,0.0613,0.0609,0.0542,0.0584,0.0548,0.0464,0.0604,0.0604,0.0604,0,0.036,0.0415,0.0505,0.0606,0.063,0.0681,0.0771,0.0826,0.089,0.0909,0.094,0.0936,0.0952,0.0891,0.0831,0.0841,0.075,0.0699,0.0693,0.0604,0.0544,0.0432,0.0455,0.0601,0.0601,0.0601,0.0601,0,0.0362,0.0466,0.0538,0.0573,0.068,0.0722,0.0774,0.085,0.0905,0.097,0.101,0.102,0.1025,0.0945,0.0846,0.0829,0.0757,0.072,0.0572,0.0565,0.0495,0.0482,0.0649,0.065,0.065,0.065,0.065,0,0.0404,0.0462,0.0538,0.0581,0.0663,0.073,0.0816,0.0873,0.0958,0.1038,0.1052,0.1113,0.1034,0.0993,0.0878,0.0731,0.0776,0.0585,0.0547,0.0524,0.0514,0.0604,0.06,0.0647,0.0647,0.0648,0.0649,0,0.0412,0.0463,0.0544,0.0639,0.0668,0.0722,0.0836,0.0902,0.0976,0.1082,0.1108,0.117,0.1117,0.1016,0.089,0.0766,0.064,0.0562,0.053,0.0489,0.0438,0.044,0.0386,0.0383,0.0381,0.0379,0.0377,0,0.0432,0.0471,0.0562,0.0603,0.0645,0.0727,0.0792,0.0892,0.097,0.1126,0.1183,0.1184,0.1174,0.0978,0.0778,0.0555,0.0578,0.0378,0.0341,0.0448,0.0416,0.0421,0.0426,0.0276,0.0273,0.0271,0.027,0,0.046,0.0479,0.0542,0.0611,0.0674,0.0767,0.0865,0.0936,0.1071,0.1169,0.1297,0.1301,0.1109,0.0895,0.0597,0.0453,0.0418,0.0327,0.0465,0.0351,0.0337,0.0308,0.0318,0.0253,0.0254,0.0256,0.0257,0.0257,0.0467,0.05,0.0561,0.0631,0.0709,0.0816,0.0904,0.1009,0.1147,0.1289,0.1312,0.13,0.1065,0.0652,0.0444,0.0244,0.0246,0.0161,0.0169,0.018,0.0186,0.017,0.0053,0.0053,0.0054,0.0054,0.0054,0,0.047,0.051,0.058,0.068,0.0774,0.0812,0.0967,0.1049,0.1202,0.1274,0.1325,0.1089,0.0833,0.0619,0.0268,0.0044,0.0054,0.0011,0.0071,0.0086,0.0099,0.0106,-0.0051,-0.0051,-0.0051,-0.0051,0,0,0.0473,0.0532,0.0571,0.0715,0.0796,0.0917,0.1012,0.1115,0.1187,0.1246,0.1232,0.1134,0.086,0.0597,0.0312,0.0143,0.0173,0.0108,0.0199,0.0312,0.033,0.0172,0.0196,0,0,0,0,0]}],[{"header":{"parameterUnit":"m.s-1","parameterCategory":2,"la1":30.2991,"la2":30.254,"lo1":-89.0895,"lo2":-89.0444,"dy":0.0017,"dx":0.0017,"nx":28,"ny":28,"refTime":"2024-08-13T09:00:00:Z","depth":"4","parameterNumber":2,"parameterNumberName":"U-component_of_CURRENTS"},"data":[0,0,0,0,0,0,0,0,0,0,0,0,0,0,0,0,0,0,0,0,0,0,0,0,0,0,0,0,0,0,0,0,0,0,0,0,0,0,0,0,0,0,0,0,0,0,0,0,0,0,0,0,0,0,0,0,0,0,0.0038,0.0039,0,0.0126,0.0127,0.0128,0.0207,0.0208,0.0209,0.021,0.0333,0.0335,0.0337,0,0,0,0,0,0,0,0,0,0,0,0,0,-0.0045,-0.0045,0.0038,0.0039,0.004,0.0126,0.0127,0.0128,0.0206,0.0208,0.0209,0.021,0.0332,0.0335,0.0338,0,0,0,0,0,0,0,0,0,0,0,0,0,0.001,-0.0044,0.0038,0.0091,0.0097,0.0126,0.0127,0.0129,0.0206,0.0208,0.0209,0.0211,0.0331,0.0335,0.0338,0.0326,0,0,0.0348,0.035,0,0,0,0,0,0,0,0,0.0006,0.0012,0.0082,0.0088,0.0094,0.0159,0.0143,0.0197,0.0206,0.0162,0.021,0.0212,0.0278,0.0286,0.0296,0.0332,0.0337,0.0349,0.0351,0.0352,0.0353,0,0,0,0,0,0,0,0.0002,0.0009,0.0071,0.0083,0.0091,0.0117,0.0126,0.0154,0.0209,0.0166,0.0173,0.0185,0.0282,0.0292,0.0299,0.0339,0.0349,0.0352,0.0354,0.0355,0.0515,0.0517,0,0,0,0,0,0,-0.0007,0.0005,0.0068,0.0074,0.0056,0.0117,0.0128,0.0135,0.0208,0.0221,0.0184,0.0189,0.0285,0.0295,0.0304,0.0474,0.0352,0.0355,0.0357,0.0513,0.0515,0.0518,0,0,0,0,0,0,-0.0009,-0.0003,0.0065,0.0044,0.0054,0.0117,0.0124,0.0136,0.0211,0.0221,0.0235,0.0256,0.0287,0.0299,0.0383,0.0472,0.0357,0.036,0.051,0.0513,0.0516,0.0698,0,0,0,0,0,0,-0.0012,-0.0004,0.0024,0.0043,0.0055,0.0114,0.0124,0.0136,0.0213,0.0222,0.0286,0.0295,0.0289,0.0378,0.0386,0.0475,0.0363,0.0507,0.0511,0.0515,0.0689,0.0707,0.0722,0,0,0,0,0,-0.0016,0.0008,0.0025,0.0034,0.0083,0.0115,0.0125,0.0173,0.0216,0.0249,0.0304,0.0297,0.041,0.0383,0.0392,0.0484,0.0505,0.051,0.0515,0.0681,0.0703,0.0722,0,0,0,0,0,0,-0.0018,0.0019,0.0038,0.0072,0.0107,0.013,0.0172,0.0211,0.0281,0.0316,0.0329,0.0342,0.0444,0.0428,0.0398,0.0535,0.0455,0.0462,0.0578,0.0599,0.0615,0.0634,0.0365,0,0,0,0,0,-0.0007,0.0027,0.0057,0.0088,0.0111,0.0157,0.0191,0.023,0.0279,0.0316,0.0374,0.0422,0.0458,0.0504,0.0525,0.061,0.0512,0.0669,0.0685,0.07,0.0718,0.0616,0.0624,0.0534,0.0534,0.0534,0,0,0.0001,0.0026,0.0048,0.0093,0.0127,0.0185,0.0183,0.0254,0.0334,0.0316,0.0468,0.0487,0.0488,0.0581,0.0626,0.0594,0.0671,0.0706,0.0719,0.073,0.0622,0.063,0.0638,0.0537,0.0537,0.0536,0,0,0.0023,0.0058,0.0098,0.0138,0.0207,0.024,0.0278,0.0355,0.0425,0.0549,0.055,0.0614,0.0715,0.0716,0.0727,0.0842,0.0752,0.0876,0.1,0.0902,0.0908,0.0912,0.0783,0.0774,0.0898,0.0898,0.0898,0,0.0038,0.0092,0.0115,0.0168,0.0224,0.0278,0.035,0.0419,0.053,0.0592,0.0628,0.0757,0.0768,0.0835,0.09,0.0883,0.0807,0.0932,0.0922,0.0925,0.0926,0.0792,0.078,0.0907,0.0906,0.0905,0.0904,0,0.0084,0.0153,0.0182,0.0275,0.0331,0.0405,0.0491,0.059,0.0702,0.0769,0.0904,0.0924,0.1,0.1018,0.1021,0.106,0.0994,0.0942,0.0872,0.0946,0.08,0.0784,0.0921,0.0917,0.0914,0.0912,0,0,0.0065,0.0192,0.0216,0.0288,0.0408,0.046,0.0596,0.0718,0.0818,0.0955,0.1063,0.1166,0.1204,0.1216,0.1212,0.1162,0.1113,0.1106,0.1096,0.0978,0.0885,0.0925,0.0909,0.1075,0.1074,0.1073,0.0773,0,0.0111,0.0232,0.0291,0.0441,0.0516,0.0609,0.0724,0.0846,0.0961,0.1079,0.1131,0.1235,0.1271,0.1328,0.1298,0.1149,0.1086,0.1198,0.0831,0.0819,0.0847,0.0899,0.1069,0.076,0.0756,0.0754,0.0752,0,0.0146,0.0234,0.0385,0.0541,0.0584,0.0707,0.089,0.0996,0.1134,0.1217,0.1331,0.1368,0.1394,0.138,0.1202,0.1285,0.1133,0.0994,0.0977,0.0947,0.0833,0.0672,0.0721,0.0723,0.0726,0.0728,0.073,0,0.0131,0.0299,0.0436,0.0496,0.0679,0.0803,0.0923,0.1078,0.114,0.1319,0.134,0.1421,0.141,0.1288,0.1077,0.1157,0.0769,0.081,0.0681,0.0676,0.0643,0.0641,0.0644,0.0644,0.0645,0.0646,0.0647,0,0.015,0.0258,0.0473,0.0554,0.0735,0.0861,0.1036,0.1158,0.1262,0.128,0.1433,0.1387,0.1388,0.1188,0.1039,0.0794,0.0728,0.0713,0.0622,0.0723,0.0735,0.0629,0.0631,0.0634,0.0637,0.0639,0.0641,0,0.011,0.0242,0.0403,0.0647,0.0741,0.0885,0.1075,0.1126,0.1267,0.1271,0.1317,0.1327,0.1173,0.1041,0.0761,0.0708,0.0464,0.0355,0.0415,0.0327,0.0463,0.0478,0.0309,0.0308,0.0308,0.0308,0.0307,0,0.0104,0.0191,0.046,0.0548,0.0691,0.0898,0.0975,0.1145,0.1139,0.116,0.1083,0.1038,0.1026,0.0648,0.056,0.0325,0.03,0.0179,0.0467,0.0511,0.0437,0.0453,0.0469,0.0306,0.0306,0.0306,0.0306,0,0.0083,0.0196,0.0323,0.051,0.0652,0.0732,0.0861,0.0868,0.096,0.1024,0.0926,0.0908,0.0724,0.0641,0.0448,0.0254,0.0308,0.0176,0.0181,0.0452,0.0505,0.0436,0.0452,0.0304,0.0304,0.0304,0.0305,0,0.0073,0.0132,0.0299,0.0462,0.0556,0.057,0.0676,0.0688,0.0736,0.0801,0.0709,0.0665,0.0672,0.0578,0.0326,0.0259,0.0352,0.0368,0.0366,0.0367,0.0541,0.0627,0.0392,0,0,0,0,0,0.0067,0.011,0.0218,0.0382,0.0432,0.0507,0.0548,0.0613,0.0694,0.0624,0.0721,0.0581,0.0513,0.0445,0.0401,0.034,0.0298,0.0285,0.0305,0.0294,0.0296,0.0505,0,0,0,0,0,0,0.0055,0.0143,0.0193,0.0252,0.0329,0.0372,0.0405,0.0465,0.0458,0.0553,0.0499,0.0584,0.0475,0.0545,0.0403,0.0385,0.0397,0.027,0.027,0.0293,0.0294,0.0296,0.0512,0,0,0,0,0]},{"header":{"parameterUnit":"m.s-1","parameterCategory":2,"la1":30.2991,"la2":30.254,"lo1":-89.0895,"lo2":-89.0444,"dy":0.0017,"dx":0.0017,"nx":28,"ny":28,"refTime":"2024-08-13T09:00:00:Z","depth":"4","parameterNumber":3,"parameterNumberName":"V-component_of_CURRENTS"},"data":[0,0,0,0,0,0,0,0,0,0,0,0,0,0,0,0,0,0,0,0,0,0,0,0,0,0,0,0,0,0,0,0,0,0,0,0,0,0,0,0,0,0,0,0,0,0,0,0,0,0,0,0,0,0,0,0,0,0,0.032,0.032,0,0.0242,0.0241,0.0239,0.0212,0.0213,0.0214,0.0215,0.005,0.0044,0.0039,0,0,0,0,0,0,0,0,0,0,0,0,0,0.0346,0.0346,0.032,0.032,0.032,0.0242,0.024,0.0239,0.0212,0.0213,0.0214,0.0215,0.0051,0.0045,0.0039,0,0,0,0,0,0,0,0,0,0,0,0,0,0.0302,0.0346,0.032,0.0302,0.0299,0.0243,0.024,0.0238,0.0212,0.0213,0.0214,0.0216,0.0053,0.0046,0.0038,-0.0037,0,0,0.0014,0.0011,0,0,0,0,0,0,0,0,0.0305,0.0301,0.0305,0.0303,0.0301,0.0244,0.0189,0.0144,0.0211,0.0238,0.0215,0.0216,0.011,0.0097,0.0072,-0.0045,-0.0052,0.0013,0.0009,0.0005,0.0003,0,0,0,0,0,0,0,0.0308,0.0303,0.0283,0.0304,0.0302,0.0263,0.0258,0.018,0.0161,0.0236,0.0235,0.0236,0.0107,0.0079,0.0067,-0.0054,0.0014,0.0007,0.0002,-0.0001,-0.0254,-0.0256,0,0,0,0,0,0,0.0334,0.0307,0.0285,0.0281,0.0313,0.0262,0.0257,0.0255,0.0163,0.0153,0.0235,0.0236,0.0092,0.0077,0.0061,-0.0027,0.0005,-0.0002,-0.0007,-0.0252,-0.0255,-0.0257,0,0,0,0,0,0,0.0335,0.0333,0.0289,0.0297,0.029,0.0262,0.0259,0.0253,0.0236,0.0165,0.0152,0.0227,0.0092,0.0072,-0.0017,-0.0034,-0.0006,-0.0013,-0.025,-0.0253,-0.0256,-0.0209,0,0,0,0,0,0,0.0336,0.0333,0.0348,0.0299,0.0291,0.0248,0.0259,0.0251,0.0237,0.0236,0.0153,0.0139,0.0092,-0.0005,-0.0025,-0.0044,-0.0019,-0.0248,-0.0251,-0.0255,-0.0208,-0.021,-0.0212,0,0,0,0,0,0.0337,0.0348,0.0349,0.0347,0.0309,0.0248,0.0238,0.0218,0.0236,0.0211,0.0157,0.0142,-0.0043,-0.0014,-0.0036,-0.0058,-0.0246,-0.025,-0.0255,-0.0207,-0.0209,-0.0212,0,0,0,0,0,0,0.036,0.0345,0.0346,0.0351,0.0303,0.0246,0.0238,0.0222,0.0161,0.0169,0.0107,0.0086,0.0001,-0.0044,-0.001,-0.0145,-0.0144,-0.0154,-0.01,-0.0103,-0.0105,-0.0061,-0.0025,0,0,0,0,0,0.0376,0.0384,0.0342,0.0343,0.0327,0.0284,0.0265,0.0243,0.0186,0.0164,0.0105,0.0037,-0.004,-0.008,-0.0159,-0.0236,-0.0259,-0.0265,-0.0267,-0.0268,-0.0251,-0.0341,-0.0349,-0.0272,-0.0272,-0.0272,0,0,0.0389,0.038,0.0387,0.0349,0.0319,0.028,0.0273,0.0239,0.0204,0.0151,0.0086,0.0022,-0.0066,-0.0151,-0.0192,-0.0186,-0.0296,-0.0274,-0.0273,-0.0255,-0.0347,-0.0354,-0.036,-0.0275,-0.0275,-0.0274,0,0,0.0391,0.0404,0.0399,0.0365,0.0325,0.0288,0.0282,0.0219,0.0193,0.012,0.0072,-0.0003,-0.0111,-0.0183,-0.023,-0.0296,-0.0307,-0.0314,-0.0283,-0.0372,-0.0378,-0.0383,-0.0379,-0.0385,-0.0309,-0.0309,-0.0309,0,0.0408,0.0402,0.0381,0.0355,0.0343,0.0295,0.027,0.0218,0.0132,0.0105,0.0107,-0.0058,-0.0128,-0.0238,-0.0245,-0.0298,-0.0311,-0.0259,-0.037,-0.0377,-0.0383,-0.0379,-0.0385,-0.0307,-0.0307,-0.0307,-0.0307,0,0.0391,0.0392,0.0382,0.0345,0.0312,0.0287,0.0223,0.0177,0.0156,0.011,0.0013,-0.0085,-0.0159,-0.0213,-0.0238,-0.0328,-0.0306,-0.0362,-0.035,-0.0387,-0.038,-0.0388,-0.0304,-0.0305,-0.0306,-0.0306,0,0,0.0429,0.0385,0.0392,0.0381,0.0319,0.0291,0.0227,0.0158,0.0133,0.0048,0.0004,-0.0123,-0.0131,-0.0185,-0.0247,-0.0328,-0.0369,-0.0337,-0.0343,-0.0305,-0.0487,-0.0415,-0.0416,-0.0439,-0.0441,-0.0443,-0.0446,0,0.0429,0.0406,0.038,0.0354,0.0331,0.0283,0.0235,0.0167,0.011,0.0045,-0.0052,-0.0101,-0.0135,-0.0137,-0.0232,-0.0371,-0.0394,-0.0358,-0.048,-0.0482,-0.0394,-0.0427,-0.045,-0.0452,-0.0454,-0.0455,-0.0456,0,0.0426,0.0415,0.0414,0.0373,0.0365,0.0367,0.0312,0.026,0.015,0.0115,0.0045,-0.0022,-0.0135,-0.0145,-0.0346,-0.0315,-0.0352,-0.0448,-0.0452,-0.0405,-0.0427,-0.0425,-0.0471,-0.047,-0.0469,-0.0468,-0.0467,0,0.0472,0.0439,0.0459,0.045,0.0394,0.042,0.041,0.0319,0.0272,0.021,0.0165,0.0026,-0.0032,-0.0164,-0.03,-0.0318,-0.0512,-0.0576,-0.053,-0.0522,-0.0602,-0.0597,-0.0649,-0.0649,-0.0649,-0.0649,-0.0649,0,0.0477,0.0489,0.0516,0.0534,0.0566,0.0522,0.0545,0.0497,0.042,0.0331,0.0263,0.0143,-0.0041,-0.0181,-0.0288,-0.042,-0.0483,-0.0508,-0.0534,-0.0577,-0.057,-0.0604,-0.0599,-0.0649,-0.0649,-0.0649,-0.0649,0,0.0493,0.0511,0.0536,0.0566,0.0598,0.0641,0.0661,0.0614,0.0583,0.046,0.0457,0.0236,0.0049,-0.0099,-0.0327,-0.0389,-0.0528,-0.0519,-0.0472,-0.0499,-0.0472,-0.0465,-0.0513,-0.0511,-0.0509,-0.0508,-0.0506,0,0.0479,0.0511,0.0605,0.0642,0.0687,0.0755,0.0751,0.0727,0.0627,0.0463,0.0341,0.0213,0.0062,-0.0168,-0.0335,-0.0457,-0.0465,-0.0464,-0.0536,-0.0444,-0.0466,-0.0462,-0.0457,-0.0503,-0.0503,-0.0502,-0.0502,0,0.0447,0.0529,0.0551,0.0668,0.0727,0.0702,0.0696,0.0685,0.0563,0.0517,0.0297,0.0197,-0.0006,-0.0194,-0.0208,-0.0339,-0.0466,-0.0446,-0.0452,-0.0521,-0.0434,-0.0456,-0.0454,-0.0496,-0.0497,-0.0497,-0.0498,0,0.044,0.0448,0.0536,0.063,0.0664,0.0614,0.066,0.055,0.0497,0.0343,0.0254,0.0094,-0.0019,-0.0135,-0.023,-0.0266,-0.032,-0.0328,-0.0342,-0.035,-0.031,-0.0176,-0.0173,0,0,0,0,0,0.0404,0.0406,0.047,0.0537,0.0573,0.0601,0.0528,0.0533,0.0478,0.0343,0.0326,0.0155,0.0024,-0.0098,-0.0121,-0.0237,-0.034,-0.0267,-0.0357,-0.046,-0.0468,-0.0445,0,0,0,0,0,0,0.0355,0.0406,0.0428,0.0433,0.0495,0.047,0.0454,0.0432,0.0346,0.0319,0.0235,0.0189,0.0037,0.0074,-0.0103,-0.0133,-0.0185,-0.0346,-0.0346,-0.0456,-0.0463,-0.0469,-0.0448,0,0,0,0,0]}]]